Location: Los Gatos B&B
(42.6926°N, 77.0646°W)
Time: 11:26:20
(UTC-04:00)

SL-16 R/B - Visible Passes

Search period start: 24 October 2014 00:00
Search period end: 02 November 2014 23:00
Orbit: 840 x 850 km, 71.0° (Epoch: 23 October)

Date Brightness Start Highest point End Pass type
(mag) Time Alt. Az. Time Alt. Az. Time Alt. Az.
24 Oct 3.9 04:58:50 10° N 05:03:51 31° NE 05:08:49 10° ESE visible
24 Oct 2.6 06:42:46 10° NW 06:48:05 42° WSW 06:53:21 10° S visible
24 Oct 2.3 19:51:07 10° S 19:56:35 52° ESE 19:59:36 26° NE visible
24 Oct 4.1 21:36:18 10° WSW 21:41:00 26° NW 21:41:35 26° NW visible
25 Oct 3.9 04:44:54 10° N 04:49:52 30° NE 04:54:48 10° ESE visible
25 Oct 2.5 06:28:47 10° NW 06:34:08 43° WSW 06:39:26 10° S visible
25 Oct 2.3 19:37:11 10° S 19:42:38 50° ESE 19:47:17 14° NE visible
25 Oct 4.0 21:22:16 10° WSW 21:27:01 27° NW 21:29:15 21° NNW visible
26 Oct 3.9 04:31:55 14° N 04:35:53 29° NE 04:40:46 10° ESE visible
26 Oct 2.5 06:14:48 10° NW 06:20:11 45° WSW 06:25:30 10° S visible
26 Oct 2.4 19:23:16 10° S 19:28:41 49° ESE 19:34:08 10° NE visible
26 Oct 4.0 21:08:14 10° WSW 21:13:02 28° NW 21:16:39 15° N visible
27 Oct 3.9 04:19:55 23° NNE 04:21:54 28° NE 04:26:44 10° ESE visible
27 Oct 2.4 06:01:56 16° NW 06:06:13 46° WSW 06:11:35 10° S visible
27 Oct 2.5 19:09:20 10° S 19:14:44 47° ESE 19:20:09 10° NE visible
27 Oct 4.0 20:54:13 10° WSW 20:59:03 28° NW 21:03:47 11° N visible
28 Oct 4.0 04:08:04 28° NE 04:08:04 28° NE 04:12:42 10° ESE visible
28 Oct 2.4 05:50:05 32° NW 05:52:16 48° WSW 05:57:39 10° S visible
28 Oct 2.5 18:55:24 10° S 19:00:46 45° ESE 19:06:10 10° NE visible
28 Oct 4.0 20:40:11 10° WSW 20:45:04 29° NW 20:50:00 10° N visible
29 Oct 4.4 03:56:17 21° E 03:56:17 21° E 03:58:40 10° ESE visible
29 Oct 2.3 05:38:18 49° WSW 05:38:19 49° WSW 05:43:43 10° S visible
29 Oct 2.6 18:41:29 10° S 18:46:49 44° ESE 18:52:11 10° NE visible
29 Oct 3.9 20:26:09 10° WSW 20:31:05 30° NW 20:36:03 10° N visible
30 Oct 4.9 03:44:28 11° ESE 03:44:28 11° ESE 03:44:38 10° ESE visible
30 Oct 3.1 05:26:29 34° SSW 05:26:29 34° SSW 05:29:47 10° S visible
30 Oct 2.6 18:27:33 10° S 18:32:52 42° ESE 18:38:12 10° NE visible
30 Oct 3.9 20:12:07 10° WSW 20:17:06 31° NW 20:22:07 10° N visible
31 Oct 4.1 05:14:35 17° S 05:14:35 17° S 05:15:51 10° S visible
31 Oct 3.9 19:58:06 10° WSW 20:03:07 32° NW 20:08:10 10° N visible
01 Nov 3.8 19:44:04 10° WSW 19:49:08 32° NW 19:54:13 10° N visible
02 Nov 3.8 18:30:03 10° WSW 18:35:09 33° NW 18:40:16 10° N visible
